User: anonymous   Login
Location: Sevilla
(37.3933°N, 5.9839°W)
Time: 02:46:49
(UTC+02:00)
Language:

SR - Orbit

View from above orbital plane
View from above orbital plane
View from above satellite
View from above satellite

Ground track
Ground track

The orbit data is extracted from the following two-line orbital elements,

1 00046U 60007B   24167.05984550  .00001580  00000-0  32583-3 0  9997
2 00046  66.6905  60.7002 0196041 123.9131 238.0794 14.51987774350587
Epoch (UTC): 15 June 2024 01:26:10
Eccentricity: 0.0196041
inclination: 66.6905°
perigee height: 580 km
apogee height: 858 km
right ascension of ascending node: 60.7002°
argument of perigee: 123.9131°
revolutions per day: 14.51987774
mean anomaly at epoch: 238.0794°
orbit number at epoch: 35058

The dashed part of the orbit path shows where the satellite is in the earth's shadow,  

DLR